Location: Gugi
(45.4667°N, 11.1000°E)
Time: 15:05:54
(UTC+00:00)

Cosmos 1633 Rocket - Pass Details

Date: 17 November 2019
Orbit: 608 x 622 km, 82.5° (Epoch: 10 December)

Event Time Altitude Azimuth Distance (km) Brightness Sun altitude
Rises 16:41:53 0° 357° (N) 2,902 6.4 -10.3°
Reaches altitude 10° 16:44:15 10° 6° (N) 1,994 5.5 -10.7°
Maximum altitude 16:48:24 40° 76° (ENE) 927 3.5 -11.4°
Drops below altitude 10° 16:52:33 10° 146° (SE) 1,986 5.5 -12.1°
Sets 16:54:53 0° 154° (SSE) 2,888 6.4 -12.5°
